Lapse_Rate
5.7 5.4 5.4 5.5 5.6 5.5 5.6 5.5 5.6 5.5 5.0 5.6 5.1 5.6 5.2 5.3 5.4 5.3 5.3 5.6 5.4 5.5 5.6 5.6 5.6 5.6 5.5 5.2 4.8 4.3 4.2 3.8 3.3 3.1 3.0 3.2 3.2 3.1
5.8 5.6 5.4 5.4 5.3 5.5 5.7 5.6 5.6 5.6 5.4 5.4 5.4 5.4 5.3 5.3 5.5 5.4 5.3 5.3 5.8 5.6 5.8 5.7 5.6 5.5 5.2 4.9 4.4 4.2 3.8 3.3 3.0 2.9 3.0 3.2 3.1 2.9
5.9 5.6 5.5 5.7 5.6 5.6 5.6 5.7 5.7 5.7 5.7 5.5 5.7 5.6 5.6 5.6 5.4 5.3 5.2 5.3 5.6 5.7 5.7 5.6 5.5 5.4 5.0 4.6 4.3 3.8 3.4 3.0 2.8 2.9 3.1 3.2 3.0 3.0
5.8 5.8 5.7 5.6 5.6 5.5 5.6 5.7 5.9 5.8 5.7 5.6 5.6 5.6 5.6 5.4 5.2 5.1 5.1 5.2 5.3 5.7 5.5 5.5 5.5 5.1 4.8 4.5 4.0 3.5 3.2 2.9 2.8 3.0 3.1 3.2 2.9 3.6
5.8 5.7 5.8 5.7 5.7 5.6 5.5 5.6 5.7 5.8 5.9 5.7 5.5 5.6 5.5 5.4 5.2 5.2 5.2 5.3 5.4 5.5 5.7 5.6 5.4 5.2 4.8 4.2 3.6 3.4 2.9 2.8 3.0 3.1 3.2 3.1 3.1 4.4
5.9 5.8 5.9 5.6 5.6 5.6 5.6 5.5 5.6 5.7 5.8 5.8 5.6 5.5 5.5 5.4 5.3 5.3 5.1 5.1 5.2 5.3 5.3 5.5 5.3 5.0 4.7 4.3 3.4 2.9 2.8 2.8 3.0 3.0 3.2 3.2 3.5 5.1
6.0 5.9 6.0 5.9 5.7 5.7 5.6 5.6 5.6 5.6 5.6 5.8 5.6 5.5 5.5 5.4 5.3 5.2 5.1 5.0 5.1 5.5 5.4 5.4 4.9 4.6 4.6 4.6 3.4 3.0 2.7 2.7 3.0 3.1 3.2 3.2 3.9 5.5
6.2 5.9 5.9 6.0 5.7 5.6 5.6 5.5 5.6 5.7 5.7 5.7 5.6 5.5 5.4 5.4 5.3 5.2 5.2 5.0 5.0 5.4 5.3 5.2 4.9 4.5 4.2 3.9 2.8 2.7 2.6 2.7 3.0 3.1 3.2 3.2 4.2 5.7
6.2 5.9 5.9 6.0 6.0 5.8 5.6 5.6 5.7 5.6 5.6 5.7 5.6 5.4 5.3 5.3 5.2 5.2 5.1 5.1 5.1 5.3 5.2 5.2 5.0 4.3 4.0 4.0 3.1 2.9 2.8 2.7 2.9 3.1 3.2 3.3 4.3 5.7
6.1 5.9 5.8 6.0 6.0 5.7 5.8 5.7 5.7 5.7 5.6 5.8 5.6 5.4 5.3 5.3 5.2 5.1 5.0 5.1 5.2 5.4 5.4 5.0 4.8 4.3 3.9 3.6 3.5 3.0 2.8 2.7 2.9 3.0 3.2 3.3 4.3 5.7
6.1 6.3 5.8 5.9 5.9 5.7 5.7 5.5 5.7 5.7 5.7 5.5 5.5 5.3 5.2 5.2 5.1 5.1 5.0 5.0 5.0 5.1 5.4 5.0 4.7 4.3 3.8 3.4 3.3 3.3 3.2 2.9 2.9 3.1 3.2 3.3 4.3 5.7
6.4 6.3 6.3 6.0 5.9 5.8 5.8 5.6 5.7 5.6 5.6 5.4 5.4 5.2 5.1 5.0 5.0 4.9 4.9 4.8 5.0 5.0 5.4 4.9 4.8 4.4 3.9 3.6 3.2 2.9 2.9 2.9 2.9 3.2 3.1 3.3 4.2 5.6
6.5 6.3 6.3 6.1 6.1 6.1 6.0 5.7 5.5 5.5 5.7 5.5 5.3 5.2 5.1 4.9 4.6 4.8 4.8 4.8 4.9 5.0 5.2 5.0 4.8 4.4 3.8 3.5 3.1 2.7 2.7 2.8 2.7 2.9 3.1 3.4 4.0 5.4
6.7 6.5 6.3 6.4 6.0 5.9 5.8 5.7 5.5 5.5 5.2 5.3 5.0 4.9 5.0 4.7 4.8 4.8 4.7 4.8 4.8 4.9 5.0 5.0 4.7 4.3 3.9 3.5 3.0 2.8 2.5 2.5 2.7 2.9 3.0 3.2 3.8 5.0
6.7 6.7 6.5 6.3 6.0 5.8 5.8 5.6 5.6 5.5 5.1 4.9 4.9 4.9 4.9 4.7 4.7 4.6 4.6 4.7 4.8 4.8 4.9 4.8 4.6 4.1 3.8 3.5 3.1 2.7 2.5 2.5 2.6 2.9 3.0 3.2 3.7 4.8
6.5 6.8 6.5 6.3 6.2 6.2 6.1 6.0 5.8 5.7 5.2 5.2 4.9 4.8 5.0 4.6 4.4 4.4 4.5 4.7 4.8 4.9 4.9 4.7 4.6 4.1 3.7 3.5 3.1 2.7 2.5 2.6 2.8 2.8 3.0 3.1 3.5 4.5
6.6 6.4 6.4 6.3 6.2 6.1 6.4 6.0 5.8 5.8 5.2 5.0 5.0 4.6 4.8 4.6 4.3 4.4 4.6 4.7 4.7 4.7 4.7 4.8 4.6 4.1 3.8 3.4 3.1 2.7 2.6 2.5 2.6 2.8 2.9 3.0 3.3 4.2
6.5 6.4 6.5 6.4 6.2 6.3 6.3 6.1 5.9 5.8 5.5 5.3 5.3 4.8 4.7 4.7 4.3 4.3 4.4 4.6 4.6 4.5 4.6 4.6 4.4 4.0 3.6 3.7 3.0 2.8 2.5 2.4 2.5 2.7 2.8 3.0 3.3 3.9
6.7 6.4 6.6 6.4 6.6 6.4 6.3 6.1 6.0 5.6 5.6 5.5 5.5 5.1 4.9 4.7 4.2 4.4 4.4 4.4 4.5 4.5 4.6 4.6 4.4 4.0 3.7 3.1 3.5 2.9 2.7 2.5 2.3 2.6 2.9 2.9 3.2 3.7
6.7 6.8 6.7 6.7 6.7 6.6 6.4 6.2 5.8 5.6 5.7 5.7 5.5 5.2 5.2 5.1 4.4 4.4 4.4 4.5 4.5 4.4 4.4 4.5 4.5 4.2 3.9 3.4 2.9 2.9 2.9 2.7 2.4 2.2 2.7 2.8 3.0 3.5
6.5 6.7 6.6 6.6 6.6 6.6 6.4 6.0 5.8 5.6 5.5 5.6 5.3 5.1 4.9 5.0 4.5 4.5 4.6 4.5 4.5 4.3 4.4 4.4 4.4 4.3 3.9 3.5 3.0 2.7 2.8 2.7 2.5 2.3 2.4 2.9 3.0 3.2
6.6 6.4 6.5 6.8 6.8 6.5 6.3 6.0 5.6 5.6 5.5 5.4 5.1 4.9 4.8 4.7 4.1 4.5 4.6 4.5 4.5 4.4 4.3 4.4 4.4 4.2 3.9 3.6 3.2 2.7 2.5 2.4 2.7 2.5 2.4 2.6 2.9 3.2
6.3 6.5 6.3 6.6 6.5 6.6 6.4 5.9 5.7 5.7 5.3 5.1 4.9 4.7 4.7 4.6 3.7 4.4 4.5 4.5 4.5 4.4 4.4 4.4 4.4 4.2 3.9 3.6 3.3 2.9 2.5 2.4 2.4 2.6 2.7 2.5 2.7 2.8
Wind_Speed
6 5 4 3 2 2 2 3 4 5 4 4 2 6 4 5 5 6 10 7 2 3 3 6 9 12 13 16 16 15 17 17 18 18 19 20 20 20
6 7 5 3 3 2 2 2 3 4 4 2 1 2 4 8 3 6 8 10 15 10 4 4 6 10 13 15 14 15 16 17 17 17 18 18 19 20
7 7 5 4 4 4 3 3 3 3 5 4 2 2 3 6 8 8 10 10 2 11 5 1 3 8 12 12 13 14 14 14 14 16 17 18 18 19
8 10 7 5 4 5 4 4 4 2 5 6 4 3 3 5 6 8 10 9 7 11 5 3 7 8 7 8 10 10 12 14 16 16 17 18 18 19
9 9 7 6 7 6 6 5 4 4 4 4 5 4 3 4 4 10 5 7 8 5 6 10 11 9 6 4 3 7 12 14 16 18 18 18 19 19
10 9 11 8 6 6 7 6 5 4 4 5 5 5 3 3 4 5 5 5 5 8 5 8 10 9 10 9 5 3 10 15 17 18 18 18 18 18
11 10 10 11 5 5 7 8 6 6 5 4 5 4 4 3 5 4 5 5 6 3 6 11 8 8 11 14 10 4 9 15 16 17 17 17 18 18
12 11 10 10 9 7 6 11 6 7 6 4 4 5 5 3 4 4 5 5 5 5 6 7 8 5 7 4 7 3 6 12 12 15 14 16 18 18
13 14 9 12 12 10 8 8 7 6 3 3 5 6 4 3 4 6 6 6 6 6 5 7 6 6 8 5 8 4 6 8 11 14 14 14 17 19
14 14 13 12 13 11 11 11 9 8 8 7 7 5 3 6 6 7 7 7 7 6 3 5 6 6 10 8 12 9 9 9 11 15 13 14 16 20
12 13 12 12 18 18 13 12 10 8 9 4 3 3 3 2 2 5 5 4 5 4 2 4 5 6 6 6 9 11 16 12 14 17 15 13 14 20
11 12 17 14 22 22 11 10 10 10 9 7 7 6 6 8 9 7 6 4 4 4 6 4 6 5 5 2 13 11 12 5 15 21 17 13 14 14
11 11 11 14 23 23 19 10 10 9 6 7 6 6 8 7 12 12 7 4 5 5 5 4 5 6 6 7 6 11 12 12 14 12 8 7 11 13
12 10 10 20 21 22 16 5 11 5 5 6 7 6 6 6 6 6 6 6 7 6 9 7 5 6 6 7 7 8 10 14 10 12 14 15 15 19
8 9 15 19 19 15 13 15 10 5 4 6 7 7 6 4 1 4 7 7 8 8 5 5 6 6 6 7 7 8 8 7 10 11 13 13 12 13
9 9 12 14 12 8 9 10 7 8 6 8 7 5 3 4 5 7 3 4 4 4 5 5 5 8 5 6 6 7 8 6 8 11 13 12 13 14
10 9 9 9 8 8 8 9 8 8 9 7 6 7 6 5 5 3 3 4 4 5 3 3 4 8 10 9 5 6 7 7 8 8 9 7 8 10
11 10 10 10 11 11 10 10 9 10 8 7 6 7 6 7 6 5 5 5 5 4 3 3 4 5 6 1 4 5 5 7 8 9 9 7 7 11
9 11 11 12 12 12 11 10 11 10 10 8 7 6 7 7 6 5 6 6 5 5 4 3 2 3 5 5 4 4 5 6 7 7 8 8 9 8
11 11 12 13 12 13 12 11 11 10 10 8 8 7 6 6 7 7 6 6 6 5 4 5 5 3 3 4 5 7 3 5 6 7 8 7 13 20
11 12 12 13 13 13 12 12 12 11 11 9 8 8 7 8 8 7 6 4 2 4 5 4 5 5 3 6 5 5 0 6 5 6 7 7 7 8
13 14 13 12 12 13 12 11 11 11 12 10 9 9 8 7 7 7 7 7 6 6 5 2 1 3 4 4 5 6 4 4 10 10 13 5 4 5
12 12 12 11 11 12 12 12 13 12 12 11 10 9 8 7 7 7 7 6 6 5 4 4 3 3 3 4 4 5 7 6 5 6 2 11 13 15
Wind_Direction
184 186 207 176 190 236 273 288 299 291 294 143 266 128 261 308 130 307 307 135 250 241 294 338 335 339 340 341 341 339 337 338 334 334 333 340 339 340
188 185 199 175 169 201 227 262 269 283 278 36 114 21 331 308 157 315 294 298 270 207 229 339 330 331 333 336 339 339 337 335 334 334 328 334 339 339
179 181 185 161 183 192 212 230 253 263 269 288 191 255 294 293 311 316 302 297 340 173 191 330 312 308 327 336 342 341 342 341 342 341 340 340 337 336
173 182 179 183 183 210 207 217 230 206 294 288 310 292 286 311 296 297 291 309 316 165 172 329 254 280 323 332 342 347 352 0 347 345 340 338 336 334
176 176 176 191 193 192 215 197 212 222 233 272 289 286 284 287 302 278 288 296 285 180 192 237 234 248 243 274 330 358 4 356 348 343 340 335 333 333
177 176 191 192 208 178 206 212 213 233 235 254 275 288 288 286 264 284 315 310 327 323 316 270 268 253 212 226 194 34 5 351 345 341 338 335 332 330
178 188 185 201 199 175 210 198 198 220 244 256 272 278 281 297 308 322 300 321 313 327 339 315 322 315 185 207 176 106 3 346 342 341 339 341 337 333
177 184 182 163 146 125 107 65 41 224 232 262 277 273 285 300 297 323 309 323 316 360 335 317 317 318 322 350 128 49 322 331 331 332 332 334 335 332
178 180 177 188 168 177 144 130 105 96 60 307 276 277 300 314 321 300 316 319 315 318 316 321 311 323 335 111 152 183 260 296 312 311 322 313 321 324
183 182 179 175 183 188 177 196 199 191 200 222 237 291 339 12 356 329 313 282 285 283 37 311 326 328 334 322 174 198 244 258 281 289 301 306 308 313
176 184 179 179 184 185 190 193 192 184 151 142 74 50 51 49 335 300 275 310 297 313 66 336 332 324 328 307 172 213 261 238 260 264 279 287 294 303
184 187 185 188 179 181 197 197 198 201 195 168 200 213 220 218 216 243 287 290 301 306 74 327 322 338 324 330 338 318 328 235 271 269 262 261 273 318
188 185 190 188 173 172 196 199 201 199 137 197 219 207 203 210 208 215 262 282 290 290 72 351 318 320 319 321 320 324 337 335 319 331 305 230 274 271
188 185 179 161 171 174 184 121 124 179 172 201 219 219 218 218 218 224 249 270 286 294 308 320 302 310 318 316 313 332 335 313 330 345 349 349 346 340
179 168 146 156 163 165 163 145 156 188 211 221 214 219 219 226 221 250 243 253 258 268 247 274 289 302 309 308 314 323 314 325 352 349 352 341 345 343
131 134 151 151 156 175 155 166 190 199 204 220 215 223 221 197 221 231 246 262 259 272 225 244 279 274 288 297 305 308 308 339 351 351 343 331 346 359
141 141 157 161 166 179 180 193 192 199 207 216 204 199 193 219 231 227 238 257 263 258 267 270 271 288 279 274 294 306 335 343 349 343 333 330 341 1
153 165 174 177 178 184 186 185 199 203 197 206 200 202 203 202 208 208 208 232 247 259 278 295 322 314 297 79 38 321 338 343 339 335 330 335 330 351
175 180 184 184 186 185 187 191 194 195 191 194 199 201 202 205 195 206 213 223 230 233 230 235 267 288 302 293 125 31 347 327 335 333 334 331 329 319
187 185 189 190 189 188 186 193 193 187 189 190 191 198 188 199 199 209 205 214 221 221 228 225 219 230 279 317 322 310 332 309 346 328 324 328 311 298
195 195 195 194 194 191 192 191 189 187 180 183 186 190 191 200 203 208 206 211 183 237 231 237 101 105 239 256 263 279 358 202 299 313 320 326 332 320
206 199 195 194 191 191 190 185 183 182 177 179 184 186 183 200 199 201 208 192 200 227 227 253 241 228 244 265 290 307 307 333 315 298 252 245 333 316
208 210 195 187 190 188 186 184 183 180 178 178 182 179 179 187 200 192 198 214 219 192 224 234 246 247 263 263 287 289 292 305 329 325 337 210 246 256